Weather History for Franklin, PA

Change the Weather History Date:

Sunday, March 10, 2013

  Actual Average Record
Temperature  
Mean Temperature 53 °F -  
Max Temperature 64 °F 44 °F 68 °F (1977)
Min Temperature 42 °F 22 °F 0 °F (1984)
Degree Days  
Heating Degree Days 12    
Growing Degree Days 3 (Base 50)    
Moisture  
Dew Point 27 °F    
Average Humidity 37    
Maximum Humidity 49    
Minimum Humidity 30    
Precipitation  
Precipitation 0.00 in - - ()
Sea Level Pressure  
Sea Level Pressure 30.07 in    
Wind  
Wind Speed 11 mph (SSE)    
Max Wind Speed 17 mph    
Max Gust Speed 22 mph    
Visibility 10 miles    
Events      
Averages and records for this station are not official NWS values.
T = Trace of Precipitation, MM = Missing Value Source: NWS Daily Summary

Daily Weather History Graph

Daily Weather History Graph

Search for Another Location

Airport:

Trip Planner

Search our weather history database for the weather conditions in past years. The results will help you decide how hot, cold, wet, or windy it might be!

Date:

Astronomy

Mar. 10, 2013 Rise Set
Actual Time 7:39 AM EDT 7:20 PM EDT
Civil Twilight 7:11 AM EDT 7:48 PM EDT
Nautical Twilight 6:39 AM EDT 8:20 PM EDT
Astronomical Twilight 6:07 AM EDT 8:52 PM EDT
Moon 6:38 AM EDT (3/10) 6:26 PM EDT (3/10)
Length of Visible Light 12h 36m
Length of Day
11h 41m
Waning Crescent, 2% of the Moon is Illuminated
Mar 10
Waning Crescent
Mar 11
New
Mar 19
First Quarter
Mar 27
Full
Apr 3
Last Quarter

Hourly Weather History & Observations

Time (EDT) Temp. Windchill Dew Point Humidity Pressure Visibility Wind Dir Wind Speed Gust Speed Precip Events Conditions
12:15 AM 42.8 °F 38.0 °F 21.2 °F 42% 30.16 in 10.0 mi SE 8.1 mph - N/A   Clear
12:35 AM 42.8 °F 37.5 °F 21.2 °F 42% 30.16 in 10.0 mi SE 9.2 mph - N/A   Clear
12:55 AM 42.8 °F 38.0 °F 21.2 °F 42% 30.16 in 10.0 mi SE 8.1 mph - N/A   Partly Cloudy
1:15 AM 42.8 °F 37.0 °F 21.2 °F 42% 30.16 in 10.0 mi SE 10.4 mph - N/A   Mostly Cloudy
1:35 AM 42.8 °F 36.6 °F 19.4 °F 39% 30.16 in 10.0 mi SE 11.5 mph - N/A   Overcast
1:55 AM 42.8 °F 36.6 °F 19.4 °F 39% 30.15 in 10.0 mi SE 11.5 mph - N/A   Overcast
3:15 AM 42.8 °F 37.0 °F 24.8 °F 49% 30.15 in 10.0 mi SSE 10.4 mph - N/A   Overcast
3:35 AM 42.8 °F 35.8 °F 21.2 °F 42% 30.12 in 10.0 mi SE 13.8 mph - N/A   Overcast
3:55 AM 42.8 °F 37.0 °F 21.2 °F 42% 30.12 in 10.0 mi SSE 10.4 mph - N/A   Overcast
4:15 AM 44.6 °F 38.8 °F 21.2 °F 39% 30.12 in 10.0 mi SSE 11.5 mph 17.3 mph N/A   Overcast
4:35 AM 44.6 °F 39.2 °F 19.4 °F 37% 30.12 in 10.0 mi SE 10.4 mph - N/A   Overcast
4:55 AM 42.8 °F 37.0 °F 21.2 °F 42% 30.12 in 10.0 mi SE 10.4 mph - N/A   Overcast
5:15 AM 42.8 °F 37.5 °F 21.2 °F 42% 30.11 in 10.0 mi SE 9.2 mph - N/A   Overcast
5:35 AM 42.8 °F 37.0 °F 19.4 °F 39% 30.11 in 10.0 mi SE 10.4 mph - N/A   Partly Cloudy
5:55 AM 44.6 °F 38.8 °F 19.4 °F 37% 30.11 in 10.0 mi SE 11.5 mph - N/A   Partly Cloudy
6:15 AM 44.6 °F 38.8 °F 19.4 °F 37% 30.11 in 10.0 mi SE 11.5 mph - N/A   Partly Cloudy
6:35 AM 44.6 °F 38.8 °F 19.4 °F 37% 30.11 in 10.0 mi SE 11.5 mph - N/A   Clear
6:55 AM 44.6 °F 38.4 °F 19.4 °F 37% 30.11 in 10.0 mi SSE 12.7 mph - N/A   Clear
7:15 AM 44.6 °F 38.8 °F 19.4 °F 37% 30.11 in 10.0 mi SE 11.5 mph - N/A   Partly Cloudy
8:35 AM 42.8 °F 39.3 °F 19.4 °F 39% 30.13 in 10.0 mi SSE 5.8 mph - N/A   Clear
8:55 AM 44.6 °F 40.7 °F 19.4 °F 37% 30.13 in 10.0 mi SE 6.9 mph - N/A   Clear
9:15 AM 44.6 °F 40.2 °F 21.2 °F 39% 30.13 in 10.0 mi SSE 8.1 mph - N/A   Clear
9:35 AM 46.4 °F 41.5 °F 23.0 °F 40% 30.13 in 10.0 mi SSE 10.4 mph 17.3 mph N/A   Clear
9:55 AM 46.4 °F 40.7 °F 21.2 °F 37% 30.13 in 10.0 mi South 12.7 mph - N/A   Clear
10:15 AM 48.2 °F - 23.0 °F 37% 30.14 in 10.0 mi SSE 10.4 mph - N/A   Mostly Cloudy
10:35 AM 46.4 °F 41.9 °F 24.8 °F 43% 30.14 in 10.0 mi SSE 9.2 mph - N/A   Overcast
10:55 AM 48.2 °F - 24.8 °F 40% 30.13 in 10.0 mi SSE 8.1 mph - N/A   Overcast
11:15 AM 50.0 °F - 26.6 °F 40% 30.13 in 10.0 mi South 8.1 mph - N/A   Mostly Cloudy
11:35 AM 53.6 °F - 28.4 °F 38% 30.12 in 10.0 mi SSE 10.4 mph 18.4 mph N/A   Partly Cloudy
11:55 AM 55.4 °F - 32.0 °F 41% 30.12 in 10.0 mi South 13.8 mph 19.6 mph N/A   Clear
12:15 PM 57.2 °F - 33.8 °F 41% 30.12 in 10.0 mi South 13.8 mph 19.6 mph N/A   Clear
12:35 PM 57.2 °F - 30.2 °F 36% 30.11 in 10.0 mi South 12.7 mph - N/A   Clear
12:55 PM 60.8 °F - 32.0 °F 34% 30.10 in 10.0 mi SSE 11.5 mph - N/A   Scattered Clouds
1:15 PM 60.8 °F - 33.8 °F 36% 30.10 in 10.0 mi South 11.5 mph 17.3 mph N/A   Mostly Cloudy
1:35 PM 60.8 °F - 33.8 °F 36% 30.09 in 10.0 mi South 10.4 mph - N/A   Scattered Clouds
1:55 PM 62.6 °F - 33.8 °F 34% 30.07 in 10.0 mi South 16.1 mph - N/A   Clear
2:15 PM 62.6 °F - 33.8 °F 34% 30.06 in 10.0 mi South 15.0 mph - N/A   Partly Cloudy
2:35 PM 64.4 °F - 33.8 °F 32% 30.06 in 10.0 mi SSW 11.5 mph 18.4 mph N/A   Clear
2:55 PM 64.4 °F - 35.6 °F 34% 30.04 in 10.0 mi SSE 16.1 mph 19.6 mph N/A   Clear
3:15 PM 64.4 °F - 35.6 °F 34% 30.04 in 10.0 mi South 12.7 mph - N/A   Clear
3:35 PM 64.4 °F - 35.6 °F 34% 30.03 in 10.0 mi South 15.0 mph 19.6 mph N/A   Clear
3:55 PM 64.4 °F - 33.8 °F 32% 30.03 in 10.0 mi SSE 15.0 mph - N/A   Clear
4:15 PM 62.6 °F - 33.8 °F 34% 30.03 in 10.0 mi SSE 12.7 mph - N/A   Clear
4:35 PM 62.6 °F - 33.8 °F 34% 30.02 in 10.0 mi South 12.7 mph 19.6 mph N/A   Clear
4:55 PM 62.6 °F - 33.8 °F 34% 30.01 in 10.0 mi South 17.3 mph 21.9 mph N/A   Clear
5:15 PM 64.4 °F - 32.0 °F 30% 29.99 in 10.0 mi SSE 11.5 mph 20.7 mph N/A   Clear
5:35 PM 62.6 °F - 33.8 °F 34% 30.02 in 10.0 mi South 10.4 mph - N/A   Clear
5:55 PM 64.4 °F - 32.0 °F 30% 30.01 in 10.0 mi SSE 10.4 mph - N/A   Clear
6:15 PM 62.6 °F - 32.0 °F 32% 30.01 in 10.0 mi SSE 12.7 mph - N/A   Clear
6:35 PM 60.8 °F - 32.0 °F 34% 30.02 in 10.0 mi South 6.9 mph - N/A   Clear
6:55 PM 60.8 °F - 32.0 °F 34% 30.03 in 10.0 mi SSE 12.7 mph 16.1 mph N/A   Clear
7:15 PM 60.8 °F - 30.2 °F 31% 30.03 in 10.0 mi SSE 9.2 mph 16.1 mph N/A   Clear
7:35 PM 57.2 °F - 30.2 °F 36% 30.03 in 10.0 mi SE 9.2 mph - N/A   Clear
7:55 PM 55.4 °F - 30.2 °F 38% 30.02 in 10.0 mi ESE 12.7 mph - N/A   Clear
8:15 PM 55.4 °F - 28.4 °F 36% 30.03 in 10.0 mi SE 11.5 mph 19.6 mph N/A   Clear
8:35 PM 55.4 °F - 28.4 °F 36% 30.03 in 10.0 mi SE 10.4 mph - N/A   Clear
8:55 PM 55.4 °F - 28.4 °F 36% 30.03 in 10.0 mi SE 11.5 mph - N/A   Clear
9:15 PM 55.4 °F - 28.4 °F 36% 30.02 in 10.0 mi SE 12.7 mph 18.4 mph N/A   Clear
9:35 PM 55.4 °F - 28.4 °F 36% 30.01 in 10.0 mi SE 13.8 mph 19.6 mph N/A   Clear
10:15 PM 53.6 °F - 28.4 °F 38% 30.00 in 10.0 mi SE 13.8 mph 19.6 mph N/A   Clear
10:35 PM 53.6 °F - 28.4 °F 38% 30.01 in 10.0 mi SE 11.5 mph 17.3 mph N/A   Clear
10:55 PM 53.6 °F - 28.4 °F 38% 30.00 in 10.0 mi SE 11.5 mph 19.6 mph N/A   Clear
11:15 PM 53.6 °F - 28.4 °F 38% 30.01 in 10.0 mi SE 12.7 mph 16.1 mph N/A   Clear
11:35 PM 51.8 °F - 28.4 °F 41% 30.00 in 10.0 mi SE 11.5 mph 16.1 mph N/A   Clear
11:55 PM 51.8 °F - 28.4 °F 41% 30.00 in 10.0 mi SE 11.5 mph - N/A   Clear
12:15 AM 51.8 °F - 28.4 °F 41% 29.99 in 10.0 mi SE 11.5 mph - N/A   Clear
12:35 AM 51.8 °F - 28.4 °F 41% 29.99 in 10.0 mi SE 11.5 mph 18.4 mph N/A   Clear
12:55 AM 51.8 °F - 28.4 °F 41% 29.99 in 10.0 mi SE 11.5 mph 19.6 mph N/A   Clear